sat.trackr.live / text

‹ back to catalog

STARLINK-1394

NORAD 45679 · 2020-035Y

PAYLOAD ACTIVE UNKNOWN

§ Identity

Operator
Country
US
Launch date
2020-06-04
Launch site
AFETR
Launch vehicle
Mass (kg)
RCS (m²)

Purposes: comms

External: N2YO · Heavens-Above · Gunter

§ Orbital elements

Epoch: 2026-05-25T01:57:14.420160Z

Period
92.13 min
Inclination
53.0422°
Eccentricity
0.0006792
Mean motion
15.63054357 rev/d
Perigee alt
374.3 km
Apogee alt
383.4 km
Semi-major
6,757.0 km
B*
9.8693e-4
RAAN
26.2525°
Arg perigee
109.2846°
Mean anomaly
250.8902°
Rev number
33,105

§ Raw data

STARLINK-13941 45679U 20035Y   26145.08141690  .00092025  00000+0  98693-3 0  99932 45679  53.0422  26.2525 0006792 109.2846 250.8902 15.63054357331052

JSON: /api/v1/satellites/45679 · /tle

For live sub-satellite position, see the globe view (requires WebGL).

§ Visibility from observer

Set your observer location to see the next 7 days of passes ≥ 10°. The values pass through the URL so the page stays shareable.

No JS? Fill the form by hand. The geolocation button needs JavaScript.